User: anonymous   Login
Location: Dampvalley
(47.9094°N, 6.1967°E)
Time: 18:45:39
(UTC+00:00)
Language:

CZ-4B R/B - Orbit

View from above orbital plane
View from above orbital plane
View from above satellite
View from above satellite

Ground track
Ground track

The orbit data is extracted from the following two-line orbital elements,

1 37181U 10051C   21332.90915454  .00001256  00000-0  97510-4 0  9995
2 37181  97.8110 320.9454 0106250 339.8524  52.0369 14.98951364608417
Epoch (UTC): 28 November 2021 21:49:10
Eccentricity: 0.0106250
inclination: 97.8110°
perigee height: 496 km
apogee height: 644 km
right ascension of ascending node: 320.9454°
argument of perigee: 339.8524°
revolutions per day: 14.98951364
mean anomaly at epoch: 52.0369°
orbit number at epoch: 60841

The dashed part of the orbit path shows where the satellite is in the earth's shadow,  

DLR